Location: Baincthun
(50.7099°N, 1.6807°E)
Time: 19:36:35
(UTC+00:00)

Daily predictions for brighter satellites

Satellite Brightness Start Highest point End
(mag) Time Altitude Azimuth Time Altitude Azimuth Time Altitude Azimuth
Cosmos 1844 Rocket 3.4 17:04:18 10° NNW 17:09:20 33° NE 17:14:19 10° ESE
CZ-2D R/B 3.6 17:08:07 10° SE 17:11:48 44° ENE 17:15:31 10° N
AQUARIUS 4.1 17:07:42 10° SSE 17:12:11 79° ENE 17:16:43 10° NNW
H-2A R/B 2.4 17:07:15 10° SE 17:12:27 48° ENE 17:17:41 10° N
X-37B 2.7 17:09:30 10° WSW 17:12:34 28° SSW 17:15:38 10° SE
Cosmos 371 Rocket 4.0 17:09:08 10° SSE 17:13:32 35° ESE 17:17:58 10° NE
Cosmos 1328 4.1 17:12:01 10° N 17:15:57 47° ENE 17:19:51 10° SSE
Cosmos 1908 3.2 17:12:33 10° S 17:16:25 77° E 17:20:17 10° NNE
Cosmos 1125 Rocket 4.0 17:11:19 10° SW 17:16:32 65° WNW 17:21:46 10° NNE
CENTAUR R/B 4.0 17:11:40 10° WNW 17:17:51 31° N 17:24:57 10° ENE
USA 267 3.4 17:15:11 10° SE 17:21:45 81° SSW 17:28:20 10° WNW
Cosmos 1269 Rocket 4.3 17:16:59 10° NNW 17:22:19 78° WSW 17:27:35 10° SSE
Tiangong 3.5 17:22:25 10° SW 17:24:30 16° S 17:26:34 10° SE
SKYMED 2 4.4 17:21:29 10° NE 17:25:17 29° E 17:29:04 10° SSE
BREEZE-M R/B 2.7 17:24:39 10° W 17:28:33 68° S 17:32:28 10° ESE
Cosmos 1455 Rocket 3.1 17:25:15 10° S 17:29:39 67° E 17:34:05 10° NNE
Landsat 5 4.5 17:26:09 10° NE 17:30:04 30° E 17:34:01 10° SSE
NOSS 2-3 (D) 4.3 17:27:12 10° S 17:30:49 32° ESE 17:34:59 10° ENE
YAOGAN 1 3.7 17:27:59 10° ESE 17:31:27 24° ENE 17:34:57 10° N
Cosmos 1953 2.4 17:27:53 10° SSW 17:31:57 83° WNW 17:36:02 10° N
Cosmos 2278 3.9 17:28:15 10° SSW 17:33:55 79° WNW 17:39:42 10° NNE
NOSS 3-1 (C) 3.6 17:29:24 10° SSW 17:34:27 46° ESE 17:40:21 10° NE
ATLAS 5 CENTAUR R/B 1.8 17:30:59 10° SW 17:34:54 64° NW 17:39:27 10° NE
Cosmos 2278 Rocket 3.9 17:32:02 10° N 17:35:28 16° NNE 17:38:37 11° ENE
Lacrosse 4 Rocket 1.4 17:32:00 10° NNW 17:36:20 75° NE 17:40:43 10° SE
Cosmos 407 Rocket 4.5 17:34:23 10° N 17:38:59 28° NE 17:43:30 10° ESE
Cosmos 1825 3.8 17:38:37 10° NNE 17:40:53 15° ENE 17:41:34 15° ENE
Cosmos 2251 Rocket 3.7 17:37:37 10° NNW 17:42:46 51° ENE 17:47:51 10° SE
Cosmos 1300 2.8 17:39:22 10° S 17:43:03 51° E 17:46:46 10° NNE
NOSS 2-3 (C) 4.0 17:39:25 10° SSW 17:43:15 43° ESE 17:47:34 11° NE
Cosmos 1544 Rocket 3.7 17:39:52 10° S 17:44:13 56° E 17:48:36 10° NNE
SL-16 R/B 2.3 17:40:06 10° S 17:45:36 55° ESE 17:51:09 10° NE
Cosmos 1821 Rocket 4.4 17:42:50 10° SSW 17:49:13 73° WNW 17:55:33 10° N
SL-19 R/B 4.3 17:45:58 10° NNE 17:51:40 68° ESE 17:57:11 10° S
Cosmos 2322 Rocket 2.3 17:51:41 10° S 17:57:05 51° ESE 18:02:32 10° NE
Cosmos 1934 Rocket 3.9 17:52:11 10° S 17:58:15 78° E 18:04:19 10° NNE
CZ-4C R/B 3.4 17:55:11 10° NNE 17:58:20 36° E 18:01:23 10° SSE
deb Chang Zheng 4 4.0 17:56:00 10° S 18:00:10 64° WSW 18:04:24 10° NNW
Iridium 4 Rocket 3.3 17:55:51 10° N 18:00:32 87° E 18:05:39 10° S
Cosmos 614 Rocket 3.8 17:57:04 10° NNW 18:02:10 74° ENE 18:07:15 10° SSE
Cosmos 2219 Rocket 3.8 17:59:36 10° SE 18:01:22 14° ESE 18:01:22 14° ESE
Okean O Rocket 1.6 17:58:58 10° SSE 18:03:18 88° WSW 18:07:43 10° NNW
Cosmos 304 Rocket 3.8 17:58:41 10° S 18:03:22 56° ESE 18:08:05 10° NNE
Cosmos 1844 3.8 17:59:21 10° NNW 18:05:07 62° NE 18:10:48 10° SE
Cosmos 2360 Rocket 2.7 18:00:56 10° S 18:06:06 38° ESE 18:11:18 10° NE
Cosmos 1602 Rocket 3.4 18:02:43 10° N 18:07:04 68° ENE 18:11:22 10° SSE
Meteor 1-4 Rocket 2.5 18:03:57 10° S 18:07:19 51° E 18:10:41 10° NNE
Cosmos 1932 4.4 18:01:08 10° NW 18:07:24 79° NE 18:13:40 10° SE
CZ-4 R/B 1.6 18:03:31 10° SE 18:07:25 47° ENE 18:11:25 10° N
ARGOS 3.1 18:04:46 10° SSE 18:10:10 84° ENE 18:15:39 10° NNW
NOSS 8 (E) 4.2 18:10:07 10° SW 18:13:22 75° NW 18:14:52 26° NE
COSMO-SKYMED 1 2.5 18:09:12 10° NNE 18:13:35 82° ESE 18:17:55 10° SSW
Cosmos 2333 Rocket 3.1 18:12:19 10° SSE 18:16:48 25° ESE 18:17:13 24° E
CZ-4B R/B 4.0 18:16:07 10° S 18:21:40 56° WSW 18:27:16 10° NNW
In-Cosmos 22 Rocket 4.0 18:16:55 10° N 18:22:16 80° ENE 18:27:36 10° SSE
SL-8 R/B 3.8 18:18:28 10° W 18:23:14 68° S 18:25:25 31° ESE
Cosmos 1190 Rocket 4.4 18:19:16 10° NNW 18:24:12 41° ENE 18:26:12 29° ESE
Spot 2 4.0 18:21:03 10° SSE 18:25:16 89° WSW 18:29:47 10° NNW
IRS-1C Rocket 4.1 18:20:30 10° SE 18:25:38 57° ENE 18:30:49 10° N
Cosmos 1943 Rocket 4.2 18:25:12 10° N 18:27:39 13° NNE 18:29:08 12° NE
Cosmos 332 Rocket 3.7 18:22:50 10° SSW 18:27:44 88° ESE 18:32:39 10° NNE
CZ-2C R/B 2.7 18:22:14 10° NNE 18:27:52 88° ESE 18:33:22 10° SSW
Feng Yun 1-1 Rocket 4.3 18:22:34 10° SSE 18:28:11 88° WSW 18:34:01 10° NNW
Okean-O 2.9 18:26:34 28° SE 18:28:29 46° ENE 18:32:44 10° N
USA 215 3.3 18:24:03 19° ENE 18:29:04 77° NNW 18:35:36 10° WSW
Cosmos 1825 Rocket 3.6 18:25:06 10° N 18:29:20 50° ENE 18:31:17 28° SE
Cosmos 1980 Rocket 3.9 18:25:34 10° WSW 18:30:33 30° NW 18:35:35 10° NNE
CSL-04 Debris 4.3 18:28:30 21° SE 18:31:53 49° ENE 18:37:07 10° N
H-2A R/B 2.5 18:29:13 10° SSE 18:33:27 80° WSW 18:37:34 10° NNW
NOSS 2-3 (E) 3.6 18:29:19 10° SW 18:33:27 80° NW 18:36:32 22° NE
Cosmos 1892 2.6 18:30:12 10° NNW 18:33:59 84° W 18:37:44 10° S
Cosmos 1758 Rocket 3.4 18:32:24 10° N 18:36:46 89° E 18:41:06 10° S
Cosmos 2228 3.1 18:33:07 10° S 18:37:23 52° E 18:41:40 10° NNE
Cosmos 2322 4.4 18:33:40 10° SSE 18:38:00 31° ESE 18:38:00 31° ESE
Cosmos 2344 4.4 18:29:45 10° NW 18:38:41 78° SW 18:51:13 10° SSE
USA 229 DEB 3.5 18:32:23 10° SSW 18:38:44 69° SE 18:43:37 20° NE
USA 229 3.5 18:32:30 10° SSW 18:38:50 69° SE 18:43:41 20° NE
Cosmos 1408 2.6 18:37:01 10° NNW 18:40:38 78° W 18:43:38 14° S
CSL-04 Rocket 3.8 18:39:01 27° SE 18:41:57 54° ENE 18:47:22 10° N
Cosmos 1953 Rocket 3.8 18:38:51 10° N 18:43:13 47° ENE 18:43:15 47° ENE
Cosmos 220 Rocket 4.1 18:43:41 10° SSW 18:48:07 80° WNW 18:51:30 17° NNE
Cosmos 1459 Rocket 4.1 18:42:22 10° SSE 18:48:12 46° E 18:54:00 10° NNE
X-37B 3.6 18:48:17 10° SW 18:49:47 12° SSW 18:51:09 10° S
SL-08 RB Rocket 4.3 18:46:24 10° S 18:50:54 58° W 18:55:30 10° NNW
H-2A R/B 4.0 18:47:15 10° SSW 18:52:03 31° W 18:56:53 10° NNW
HJ-1C 3.7 18:52:27 54° SSW 18:52:55 63° WSW 18:56:10 10° NNW
Cosmos 1844 Rocket 3.3 18:48:04 10° NW 18:53:32 56° WSW 18:58:56 10° S
ATLAS 3B R/B 4.1 18:48:06 10° WNW 18:53:59 31° NNW 18:58:46 15° NE
Cosmos 2100 Rocket 4.0 18:47:53 10° SSE 18:54:01 55° E 19:00:14 10° NNE
Meteor 2-10 Rocket 3.8 18:48:33 10° SSW 18:54:02 71° WNW 18:59:20 10° N
Cosmos 2369 Rocket 4.3 18:54:25 10° N 18:56:09 11° NNE 18:57:05 11° NNE
Tiangong 4.0 18:59:34 10° SW 19:00:17 11° SSW 19:00:17 11° SSW
NOSS 3-1 (A) 3.2 18:55:44 10° SW 19:01:09 89° NW 19:04:32 29° NE
DMSP B5D2-2 3.9 18:56:50 10° NNE 19:02:07 79° ESE 19:07:20 10° SSW
Cosmos 2058 4.0 18:59:10 10° N 19:01:39 32° NNE 19:01:39 32° NNE
Cosmos 2237 4.4 18:58:03 10° SW 19:03:46 71° WNW 19:09:12 12° NNE
Cosmos 2173 Rocket 3.9 18:58:24 10° S 19:04:29 61° E 19:10:42 10° NNE
Ariane Rocket 4.5 19:07:15 23° NNE 19:07:15 23° NNE 19:09:45 10° N
Cosmos 1802 Rocket 4.0 19:05:58 50° E 19:05:58 50° E 19:11:41 10° NNE
H-2A R/B 3.0 19:07:49 35° S 19:07:49 35° S 19:10:18 10° SSW
BREEZE-M DEB (TANK) 4.0 19:01:54 10° W 19:06:13 32° SW 19:06:15 32° SSW
YAOGAN 1 3.6 19:03:11 10° S 19:07:19 45° W 19:11:31 10° NNW
IRS-P2 Rocket 4.4 19:06:16 37° SSE 19:08:23 87° ENE 19:13:38 10° NNW
CENTAUR R/B 3.6 19:03:19 10° NW 19:10:32 43° NNE 19:12:59 36° ENE
Lacrosse 4 Rocket 4.3 19:11:46 10° WNW 19:14:30 16° WSW 19:17:15 10° SSW
Cosmos 1825 2.9 19:13:00 10° NNW 19:16:21 52° WNW 19:16:21 52° WNW
Cosmos 44 3.7 19:12:19 10° SW 19:17:44 72° NW 19:19:21 45° NNE
NOSS 3-2 (A) 4.3 19:11:29 10° NW 19:18:18 48° NNE 19:19:55 43° ENE
Cosmos 1140 Rocket 3.8 19:14:08 10° NNW 19:19:17 63° WSW 19:21:15 36° S
ATLAS 5 CENTAUR R/B 3.6 19:17:03 10° WNW 19:20:26 22° NNW 19:21:54 19° N
Cosmos 2278 Rocket 2.5 19:15:26 10° NNW 19:20:28 49° NE 19:20:28 49° NE
Cosmos 407 Rocket 4.0 19:16:07 10° NNW 19:21:21 58° WSW 19:23:44 31° S
ATLAS 5 CENTAUR R/B 4.2 19:04:51 10° W 19:23:10 43° NNW 19:26:02 28° NE
NOSS 3-1 (C) 4.1 19:19:51 10° WSW 19:25:15 49° NNW 19:28:48 25° NNE
Cosmos 2333 4.0 19:21:41 10° SSW 19:27:20 85° ESE 19:27:51 74° NE
USA 238 DEB 4.3 19:22:09 10° NW 19:28:50 42° NNE 19:29:49 40° NE
USA 238 4.4 19:22:15 10° NW 19:28:56 42° NNE 19:29:54 40° NE
SL-16 R/B 3.7 19:24:51 10° WSW 19:30:00 34° NW 19:35:10 10° NNE
Cosmos 676 Rocket 4.0 19:25:45 10° NNW 19:30:25 70° N 19:30:25 70° N
Tsikada Rocket 4.2 19:25:32 10° N 19:30:42 53° NE 19:30:42 53° NE
Cosmos 1954 Rocket 4.0 19:28:25 10° NNW 19:33:11 74° NNW 19:33:11 74° NNW
Cosmos 2322 Rocket 3.6 19:36:14 10° WSW 19:41:22 35° NW 19:46:08 12° NNE
CZ-4 R/B 4.0 19:39:38 10° SW 19:42:40 20° W 19:45:45 10° NW
Cosmos 2219 Rocket 3.3 19:40:20 10° SSW 19:43:12 32° SSW 19:43:12 32° SSW
Cosmos 2360 Rocket 3.1 19:44:38 10° SW 19:50:03 45° NW 19:53:15 23° N
Cosmos 2333 Rocket 2.8 19:54:56 10° SW 19:59:19 52° WSW 19:59:19 52° WSW
USA 215 3.7 20:11:24 52° N 20:11:45 52° N 20:18:03 10° WNW
Cosmos 1943 Rocket 3.9 20:08:03 10° NNW 20:10:39 24° N 20:10:39 24° N
Resurs 01 Rocket 4.4 20:20:34 12° NNW 20:20:34 12° NNW 20:20:50 10° NNW
Cosmos 2369 Rocket 4.4 20:37:17 10° NNW 20:38:51 17° N 20:38:51 17° N
ATLAS 3B R/B 4.1 20:40:42 10° NW 20:46:00 30° N 20:46:00 30° N
NOSS 3-2 (C) 4.5 20:43:09 10° NW 20:48:23 52° NNW 20:48:23 52° NNW
CENTAUR R/B 3.5 20:54:05 10° NW 21:00:10 58° NW 21:00:10 58° NW
Cosmos 2278 Rocket 4.3 20:59:51 10° NW 21:02:19 23° WNW 21:02:19 23° WNW
